Regional Weather Roundup
Issued by NWS

Home | Current Version | Previous Version | Text Only | Print | Product List | Glossary Off
Versions: 1 2 3 4 5 6 7 8 9 10 11 12 13 14 15 16 17 18 19 20 21 22 23 24 25 26 27 28 29 30 31 32 33 34 35 36 37 38 39 40 41 42 43 44 45 46 47 48 49 50

460
ASUS43 KMKX 310311
RWRWI

WISCONSIN REGIONAL WEATHER ROUNDUP
NATIONAL WEATHER SERVICE MILWAUKEE/SULLIVAN WI
1000 PM CDT MON MAY 30 2016

NOTE: "FAIR" INDICATES FEW OR NO CLOUDS BELOW 12,000 FEET WITH NO
SIGNIFICANT WEATHER AND/OR OBSTRUCTIONS TO VISIBILITY.

WIZ001-002-006>008-014>016-023>028-310400-
NORTHWEST WISCONSIN

CITY           SKY/WX    TMP DP  RH WIND       PRES   REMARKS
SUPERIOR ARPT  CLOUDY    56  45  65 N5        29.95S
ASHLAND        CLOUDY    65  47  52 NE3       29.98R
HAYWARD        PTCLDY    61  58  90 CALM      29.96R
SIREN          PTCLDY    67  56  68 CALM      29.94R
CUMBERLAND     CLOUDY    68  52  56 SE3       29.96R
RICE LAKE      CLOUDY    70  55  58 CALM      29.97R
CHETEK         CLOUDY    68  56  65 CALM      29.96R
LADYSMITH      MOCLDY    64  57  78 CALM      30.00R
EAU CLAIRE     CLOUDY    67  56  67 CALM      29.94R
MENOMONIE      CLOUDY    69  55  59 E5        29.94S
NEW RICHMOND   PTCLDY    70  53  53 SE6       29.94R
OSCEOLA        PTCLDY    71  55  55 SE8       29.95R
$$

WIZ003>005-009-010-017-018-310400-
NORTH CENTRAL WISCONSIN

CITY           SKY/WX    TMP DP  RH WIND       PRES   REMARKS
MANITOWISH WTR NOT AVBL
ARBOR VITAE    CLEAR     60  53  78 CALM      30.02R
WOODRUFF       CLEAR     60  53  78 CALM      30.02R
RHINELANDER    CLOUDY    57  53  86 CALM      30.02R
EAGLE RIVER      N/A     57  53  86 CALM      30.02R
LAND O LAKES   PTCLDY    57  50  78 CALM      30.03R
PHILLIPS       MOCLDY    64  57  79 CALM      29.99R
TOMAHAWK       CLOUDY    63  56  79 CALM      30.01R
MEDFORD        PTCLDY    63  56  77 SE3       30.00R
MERRILL        PTCLDY    62  58  87 CALM      30.01R
$$

WIZ029-030-035-036-043>047-310400-
CENTRAL WISCONSIN

CITY           SKY/WX    TMP DP  RH WIND       PRES   REMARKS
WAUSAU         PTCLDY    67  56  67 CALM      29.99R
MOSINEE        CLEAR     63  54  72 SE3       30.01R
MARSHFIELD     CLOUDY    69  53  56 CALM      29.98R
STEVENS POINT  CLEAR     61  54  78 CALM      30.00S
WAUPACA        CLOUDY    65  58  77 CALM      30.00R
WAUTOMA        CLOUDY   N/A N/A N/A CALM      29.99R
WISC RAPIDS    CLOUDY    63  52  67 CALM      30.00R
CAMP DOUGLAS   NOT AVBL
$$

WIZ011>013-019>022-031-037>040-048>050-310400-
NORTHEAST WISCONSIN

CITY           SKY/WX    TMP DP  RH WIND       PRES   REMARKS
ANTIGO         CLOUDY    62  57  84 CALM      30.02R
SHAWANO        CLEAR     63  56  76 CALM      29.99R
OCONTO         CLEAR     59  59 100 CALM      29.98R
STURGEON BAY   NOT AVBL
GREEN BAY      CLEAR     66  59  78 SW3       29.99R
MANITOWOC      CLEAR     62  54  74 SW5       30.01R
APPLETON       PTCLDY   N/A N/A N/A VRB3      29.99R
CLINTONVILLE   CLEAR     61  54  77 CALM      30.00R
OSHKOSH        CLEAR     66  53  63 CALM      29.99R
$$

WIZ032>034-041-042-053>061-310400-
SOUTHWEST WISCONSIN

CITY           SKY/WX    TMP DP  RH WIND       PRES   REMARKS
LA CROSSE      CLOUDY    72  56  57 E6        29.93S
SPARTA         MOCLDY    66  56  70 E5        29.98R
VIROQUA        CLOUDY    69  52  53 E7        29.97F
BOSCOBEL       CLOUDY    66  61  84 CALM      29.95F
PRAIRIE DU CHI CLOUDY    71  53  53 E3        29.92F
PLATTEVILLE    CLOUDY    71  53  52 E9        29.96F
$$

WIZ056-057-062-063-064-067-068-310400-
SOUTH CENTRAL WISCONSIN

CITY           SKY/WX    TMP DP  RH WIND       PRES   REMARKS
REEDSBURG      PTCLDY    66  57  72 CALM      29.98R
BARABOO/DELLS  PTCLDY    65  54  68 CALM      29.99R
LONE ROCK      CLOUDY    68  58  70 CALM      29.97S
MINERAL POINT  CLOUDY    72  48  43 E6        29.98S
MADISON        CLOUDY    65  53  65 CALM      29.98R
MIDDLETON      CLOUDY    64  57  79 CALM      30.00R
WATERTOWN      CLOUDY    65  56  74 E5        29.99S
MONROE         CLEAR     72  48  43 NE7       29.98S
JANESVILLE     NOT AVBL
$$

WIZ051-052-058>065-066-070>072-310400-
SOUTHEAST WISCONSIN

CITY           SKY/WX    TMP DP  RH WIND       PRES   REMARKS
MILWAUKEE      PTCLDY    65  57  75 CALM      30.00R
WAUKESHA       PTCLDY    64  54  68 CALM      30.02S
MILWAUKEE/TIMM CLEAR     66  52  59 CALM      30.01S
RACINE         CLEAR     63  56  78 CALM      30.02R
BURLINGTON     CLEAR     66  55  66 CALM      30.01R
KENOSHA        CLEAR     61  56  83 NE5       30.01R
FOND DU LAC    CLEAR     66  59  78 SE6       30.00R
SHEBOYGAN      CLEAR     61  55  81 CALM      30.00S
WEST BEND      CLOUDY    61  57  88 CALM      30.01S
JUNEAU         CLOUDY    66  58  74 E6        30.01R
$$

LSZ147-162-310400-
LAKE SUPERIOR

STATION/POSITION TIME  TEMP    WIND        PRES    WAVE
                       AIR SEA DIR/SP/G            HT/PER
                 (UTC) (F)     (DEG/KT/KT) (MB)    (FT/S)
W MID LAKE BUOY  0250   45 38   80/ 16/ 17 1017.2R   1/ 3
DEVILS ISLAND    0300   56      80/ 26/ 29 1016.1R
SAXON HARBOR     0240   64     160/  1/  4 1014.2R
$$

LMZ867-665-643>646-310400-
LAKE MICHIGAN

STATION/POSITION TIME  TEMP    WIND        PRES    WAVE
                       AIR SEA DIR/SP/G            HT/PER
                 (UTC) (F)     (DEG/KT/KT) (MB)    (FT/S)
CHAMBERS ISLAND  0200   66     180/  3/  5 1014.6
N MID LAKE BUOY  0250   55 50  320/  4/  8 1015.6R   1/ 3
NORTHPORT PIER   0300   59      10/  8/ 13 1015.6R
KEWAUNEE LAKESHO 0200                      1014.6R
SHEBOYGAN LAKESH 0300   61     180/  4/  4 1016.3R
PORT WASHINGTON  0240   61     200/  3/  4 1016.6R
S MID LAKE BUOY  0250   61 58   70/  6/  6 1015.4R   0
KENOSHA   LAKESH 0300   61     340/  3/  3 1015.9R
$$

TC  - TEMPERATURE IN CELSIUS
VSB - VISIBILITY IN STATUTE MILES
WCI - WIND CHILL INDEX
HX  - HEAT INDEX





USA.gov is the U.S. government's official web portal to all federal, state and local government web resources and services.